Information on these data can be found in provided Readme document
Contact Info: Zachary Fasnacht (zachary.fasnacht@ssaihq.com); Nickolay Krotkov (nickolay.a.krotkov@nasa.gov); Lok Lamsal (lok.lamsal@nasa.gov)

FillValue: -999.
ScaleFactor: 1e15
Units: molecules/cm^2

Date(yyyy-mm-dd),City,Country,LonCenter,LatCenter,BoundingCoordinates,Median,Q1,Q3,Mean,Baseline_Median,Baseline_Q1,Baseline_Q3,Baseline_Mean,NumGoodSamples,NumTotalSamples
2015-01-01,Lima,Peru,-77.0333,-12.0001,[-77.5333 -12.5001 -76.5333 -11.5001],1.016,0.264,2.193,1.369,1.079,0.315,2.066,1.334,142.0,540.0
2015-01-02,Lima,Peru,-77.0333,-12.0001,[-77.5333 -12.5001 -76.5333 -11.5001],0.984,0.264,2.049,1.325,1.073,0.319,2.047,1.336,139.0,518.0
2015-01-03,Lima,Peru,-77.0333,-12.0001,[-77.5333 -12.5001 -76.5333 -11.5001],0.984,0.264,2.102,1.354,1.064,0.32,1.99,1.32,162.0,534.0
2015-01-04,Lima,Peru,-77.0333,-12.0001,[-77.5333 -12.5001 -76.5333 -11.5001],0.978,0.251,1.687,1.235,1.013,0.3,1.904,1.288,151.0,534.0
2015-01-05,Lima,Peru,-77.0333,-12.0001,[-77.5333 -12.5001 -76.5333 -11.5001],0.978,0.264,2.049,1.33,1.017,0.301,2.012,1.283,164.0,524.0
2015-01-06,Lima,Peru,-77.0333,-12.0001,[-77.5333 -12.5001 -76.5333 -11.5001],1.02,0.249,2.161,1.4,0.99,0.281,1.952,1.269,175.0,542.0
2015-01-07,Lima,Peru,-77.0333,-12.0001,[-77.5333 -12.5001 -76.5333 -11.5001],1.068,0.28,2.049,1.379,0.973,0.257,1.887,1.207,192.0,511.0
2015-01-08,Lima,Peru,-77.0333,-12.0001,[-77.5333 -12.5001 -76.5333 -11.5001],1.068,0.28,2.049,1.389,0.966,0.244,1.885,1.2,188.0,530.0
2015-01-09,Lima,Peru,-77.0333,-12.0001,[-77.5333 -12.5001 -76.5333 -11.5001],1.068,0.28,2.049,1.381,0.967,0.246,1.927,1.213,183.0,480.0
2015-01-10,Lima,Peru,-77.0333,-12.0001,[-77.5333 -12.5001 -76.5333 -11.5001],1.068,0.3,2.049,1.471,0.976,0.268,1.832,1.224,199.0,510.0
2015-01-11,Lima,Peru,-77.0333,-12.0001,[-77.5333 -12.5001 -76.5333 -11.5001],0.978,0.297,1.96,1.37,0.962,0.25,1.807,1.203,184.0,493.0
2015-01-12,Lima,Peru,-77.0333,-12.0001,[-77.5333 -12.5001 -76.5333 -11.5001],1.016,0.301,2.049,1.399,1.004,0.269,1.821,1.22,196.0,502.0
2015-01-13,Lima,Peru,-77.0333,-12.0001,[-77.5333 -12.5001 -76.5333 -11.5001],0.978,0.301,2.01,1.378,1.037,0.298,1.869,1.265,195.0,509.0
2015-01-14,Lima,Peru,-77.0333,-12.0001,[-77.5333 -12.5001 -76.5333 -11.5001],1.012,0.301,1.956,1.361,1.053,0.336,1.888,1.278,199.0,484.0
2015-01-15,Lima,Peru,-77.0333,-12.0001,[-77.5333 -12.5001 -76.5333 -11.5001],0.95,0.297,1.915,1.335,0.964,0.291,1.818,1.218,178.0,501.0
2015-01-16,Lima,Peru,-77.0333,-12.0001,[-77.5333 -12.5001 -76.5333 -11.5001],0.851,0.282,1.897,1.311,0.93,0.296,1.837,1.239,186.0,474.0
2015-01-17,Lima,Peru,-77.0333,-12.0001,[-77.5333 -12.5001 -76.5333 -11.5001],0.87,0.297,1.942,1.371,0.929,0.301,1.844,1.261,180.0,505.0
2015-01-18,Lima,Peru,-77.0333,-12.0001,[-77.5333 -12.5001 -76.5333 -11.5001],0.833,0.301,1.756,1.251,0.947,0.284,1.819,1.252,164.0,481.0
2015-01-19,Lima,Peru,-77.0333,-12.0001,[-77.5333 -12.5001 -76.5333 -11.5001],0.835,0.319,1.815,1.293,0.949,0.299,1.828,1.259,178.0,494.0
2015-01-20,Lima,Peru,-77.0333,-12.0001,[-77.5333 -12.5001 -76.5333 -11.5001],0.761,0.301,1.652,1.183,0.871,0.26,1.835,1.245,165.0,494.0
2015-01-21,Lima,Peru,-77.0333,-12.0001,[-77.5333 -12.5001 -76.5333 -11.5001],0.851,0.319,1.897,1.282,0.965,0.344,1.862,1.285,162.0,485.0
2015-01-22,Lima,Peru,-77.0333,-12.0001,[-77.5333 -12.5001 -76.5333 -11.5001],0.795,0.247,1.831,1.259,0.964,0.33,1.795,1.264,158.0,505.0
2015-01-23,Lima,Peru,-77.0333,-12.0001,[-77.5333 -12.5001 -76.5333 -11.5001],0.833,0.266,1.763,1.218,0.97,0.302,1.773,1.24,163.0,474.0
2015-01-24,Lima,Peru,-77.0333,-12.0001,[-77.5333 -12.5001 -76.5333 -11.5001],0.833,0.266,1.763,1.218,1.009,0.329,1.796,1.259,163.0,526.0
2015-01-25,Lima,Peru,-77.0333,-12.0001,[-77.5333 -12.5001 -76.5333 -11.5001],0.76,0.115,1.652,1.05,0.961,0.3,1.78,1.22,139.0,509.0
2015-01-26,Lima,Peru,-77.0333,-12.0001,[-77.5333 -12.5001 -76.5333 -11.5001],0.761,0.129,1.756,1.123,0.918,0.306,1.77,1.213,138.0,537.0
2015-01-27,Lima,Peru,-77.0333,-12.0001,[-77.5333 -12.5001 -76.5333 -11.5001],0.761,0.129,1.47,1.023,0.943,0.302,1.717,1.188,123.0,517.0
2015-01-28,Lima,Peru,-77.0333,-12.0001,[-77.5333 -12.5001 -76.5333 -11.5001],0.76,0.129,1.47,1.0,0.952,0.306,1.689,1.165,130.0,528.0
2015-01-29,Lima,Peru,-77.0333,-12.0001,[-77.5333 -12.5001 -76.5333 -11.5001],0.669,0.129,1.487,0.959,0.942,0.309,1.77,1.183,145.0,536.0
2015-01-30,Lima,Peru,-77.0333,-12.0001,[-77.5333 -12.5001 -76.5333 -11.5001],0.676,0.129,1.564,0.996,0.948,0.292,1.712,1.164,154.0,510.0
2015-01-31,Lima,Peru,-77.0333,-12.0001,[-77.5333 -12.5001 -76.5333 -11.5001],0.734,0.129,1.592,1.014,0.917,0.3,1.722,1.139,146.0,531.0
2015-02-01,Lima,Peru,-77.0333,-12.0001,[-77.5333 -12.5001 -76.5333 -11.5001],0.734,0.131,1.592,1.007,0.876,0.272,1.707,1.105,153.0,504.0
2015-02-02,Lima,Peru,-77.0333,-12.0001,[-77.5333 -12.5001 -76.5333 -11.5001],0.896,0.131,1.796,1.078,0.931,0.281,1.767,1.124,143.0,536.0
2015-02-03,Lima,Peru,-77.0333,-12.0001,[-77.5333 -12.5001 -76.5333 -11.5001],0.886,0.04,1.55,0.96,0.906,0.252,1.711,1.122,130.0,514.0
2015-02-04,Lima,Peru,-77.0333,-12.0001,[-77.5333 -12.5001 -76.5333 -11.5001],0.736,0.112,1.564,1.019,0.918,0.279,1.731,1.159,147.0,529.0
2015-02-05,Lima,Peru,-77.0333,-12.0001,[-77.5333 -12.5001 -76.5333 -11.5001],0.676,0.031,1.433,0.849,0.87,0.249,1.757,1.145,134.0,527.0
2015-02-06,Lima,Peru,-77.0333,-12.0001,[-77.5333 -12.5001 -76.5333 -11.5001],0.669,0.04,1.47,0.868,0.887,0.239,1.738,1.136,134.0,516.0
2015-02-07,Lima,Peru,-77.0333,-12.0001,[-77.5333 -12.5001 -76.5333 -11.5001],0.669,0.107,1.528,0.863,0.929,0.309,1.844,1.175,142.0,535.0
2015-02-08,Lima,Peru,-77.0333,-12.0001,[-77.5333 -12.5001 -76.5333 -11.5001],0.666,0.044,1.528,0.856,0.91,0.277,1.771,1.14,143.0,504.0
2015-02-09,Lima,Peru,-77.0333,-12.0001,[-77.5333 -12.5001 -76.5333 -11.5001],0.676,0.125,1.529,0.9,0.878,0.245,1.786,1.127,134.0,523.0
2015-02-10,Lima,Peru,-77.0333,-12.0001,[-77.5333 -12.5001 -76.5333 -11.5001],0.676,0.125,1.529,0.902,0.914,0.26,1.818,1.166,125.0,474.0
2015-02-11,Lima,Peru,-77.0333,-12.0001,[-77.5333 -12.5001 -76.5333 -11.5001],0.676,0.125,1.529,0.879,0.94,0.272,1.842,1.185,132.0,503.0
2015-02-12,Lima,Peru,-77.0333,-12.0001,[-77.5333 -12.5001 -76.5333 -11.5001],0.651,0.125,1.433,0.826,0.913,0.253,1.796,1.148,125.0,483.0
2015-02-13,Lima,Peru,-77.0333,-12.0001,[-77.5333 -12.5001 -76.5333 -11.5001],0.651,0.044,1.529,0.872,0.89,0.223,1.731,1.103,122.0,491.0
2015-02-14,Lima,Peru,-77.0333,-12.0001,[-77.5333 -12.5001 -76.5333 -11.5001],0.603,0.044,1.426,0.833,0.92,0.253,1.739,1.131,121.0,501.0
2015-02-15,Lima,Peru,-77.0333,-12.0001,[-77.5333 -12.5001 -76.5333 -11.5001],0.736,0.18,1.357,0.888,0.916,0.27,1.682,1.122,130.0,474.0
2015-02-16,Lima,Peru,-77.0333,-12.0001,[-77.5333 -12.5001 -76.5333 -11.5001],0.736,0.18,1.357,0.894,0.946,0.294,1.721,1.17,123.0,496.0
2015-02-17,Lima,Peru,-77.0333,-12.0001,[-77.5333 -12.5001 -76.5333 -11.5001],0.736,0.18,1.357,0.894,0.932,0.26,1.72,1.148,123.0,472.0
2015-02-18,Lima,Peru,-77.0333,-12.0001,[-77.5333 -12.5001 -76.5333 -11.5001],0.738,0.241,1.41,0.955,0.915,0.259,1.686,1.116,114.0,503.0
2015-02-19,Lima,Peru,-77.0333,-12.0001,[-77.5333 -12.5001 -76.5333 -11.5001],0.766,0.241,1.357,0.863,0.893,0.237,1.652,1.07,91.0,478.0
2015-02-20,Lima,Peru,-77.0333,-12.0001,[-77.5333 -12.5001 -76.5333 -11.5001],0.847,0.241,1.41,0.965,0.963,0.268,1.72,1.146,109.0,494.0
2015-02-21,Lima,Peru,-77.0333,-12.0001,[-77.5333 -12.5001 -76.5333 -11.5001],0.828,0.198,1.357,0.917,0.976,0.286,1.755,1.17,102.0,494.0
2015-02-22,Lima,Peru,-77.0333,-12.0001,[-77.5333 -12.5001 -76.5333 -11.5001],0.811,0.079,1.357,0.841,0.943,0.252,1.691,1.138,96.0,485.0
2015-02-23,Lima,Peru,-77.0333,-12.0001,[-77.5333 -12.5001 -76.5333 -11.5001],0.828,0.079,1.346,0.825,0.969,0.284,1.715,1.158,107.0,503.0
2015-02-24,Lima,Peru,-77.0333,-12.0001,[-77.5333 -12.5001 -76.5333 -11.5001],0.863,0.257,1.298,0.85,1.008,0.32,1.684,1.172,116.0,473.0
2015-02-25,Lima,Peru,-77.0333,-12.0001,[-77.5333 -12.5001 -76.5333 -11.5001],0.863,0.257,1.298,0.85,0.988,0.281,1.701,1.151,116.0,525.0
2015-02-26,Lima,Peru,-77.0333,-12.0001,[-77.5333 -12.5001 -76.5333 -11.5001],0.863,0.257,1.298,0.861,0.975,0.289,1.702,1.148,109.0,509.0
2015-02-27,Lima,Peru,-77.0333,-12.0001,[-77.5333 -12.5001 -76.5333 -11.5001],0.935,0.447,1.298,1.014,1.026,0.332,1.744,1.167,124.0,539.0
2015-02-28,Lima,Peru,-77.0333,-12.0001,[-77.5333 -12.5001 -76.5333 -11.5001],0.796,0.379,1.284,0.905,0.973,0.3,1.678,1.142,118.0,522.0
2015-03-01,Lima,Peru,-77.0333,-12.0001,[-77.5333 -12.5001 -76.5333 -11.5001],0.854,0.379,1.298,1.011,0.981,0.309,1.721,1.153,132.0,531.0
2015-03-02,Lima,Peru,-77.0333,-12.0001,[-77.5333 -12.5001 -76.5333 -11.5001],0.796,0.356,1.298,1.009,1.016,0.318,1.686,1.175,139.0,540.0
2015-03-03,Lima,Peru,-77.0333,-12.0001,[-77.5333 -12.5001 -76.5333 -11.5001],0.935,0.379,1.623,1.164,1.024,0.324,1.725,1.172,152.0,514.0
2015-03-04,Lima,Peru,-77.0333,-12.0001,[-77.5333 -12.5001 -76.5333 -11.5001],0.935,0.379,1.623,1.164,0.991,0.303,1.685,1.161,152.0,533.0
2015-03-05,Lima,Peru,-77.0333,-12.0001,[-77.5333 -12.5001 -76.5333 -11.5001],1.017,0.462,1.657,1.26,1.07,0.357,1.733,1.235,167.0,509.0
2015-03-06,Lima,Peru,-77.0333,-12.0001,[-77.5333 -12.5001 -76.5333 -11.5001],1.017,0.462,1.657,1.26,1.044,0.36,1.729,1.234,167.0,542.0
2015-03-07,Lima,Peru,-77.0333,-12.0001,[-77.5333 -12.5001 -76.5333 -11.5001],1.026,0.478,1.657,1.269,1.001,0.347,1.673,1.179,148.0,518.0
2015-03-08,Lima,Peru,-77.0333,-12.0001,[-77.5333 -12.5001 -76.5333 -11.5001],1.026,0.478,1.662,1.272,0.972,0.27,1.618,1.149,166.0,533.0
2015-03-09,Lima,Peru,-77.0333,-12.0001,[-77.5333 -12.5001 -76.5333 -11.5001],1.047,0.478,1.662,1.312,0.991,0.232,1.65,1.16,165.0,532.0
2015-03-10,Lima,Peru,-77.0333,-12.0001,[-77.5333 -12.5001 -76.5333 -11.5001],1.109,0.501,1.879,1.404,0.966,0.222,1.657,1.172,170.0,524.0
2015-03-11,Lima,Peru,-77.0333,-12.0001,[-77.5333 -12.5001 -76.5333 -11.5001],1.026,0.412,1.931,1.397,0.953,0.211,1.757,1.215,176.0,542.0
2015-03-12,Lima,Peru,-77.0333,-12.0001,[-77.5333 -12.5001 -76.5333 -11.5001],1.143,0.412,1.917,1.388,0.999,0.234,1.774,1.246,186.0,511.0
2015-03-13,Lima,Peru,-77.0333,-12.0001,[-77.5333 -12.5001 -76.5333 -11.5001],1.149,0.457,1.955,1.422,1.018,0.278,1.892,1.306,177.0,530.0
2015-03-14,Lima,Peru,-77.0333,-12.0001,[-77.5333 -12.5001 -76.5333 -11.5001],1.178,0.43,1.955,1.393,1.032,0.293,2.093,1.348,152.0,480.0
2015-03-15,Lima,Peru,-77.0333,-12.0001,[-77.5333 -12.5001 -76.5333 -11.5001],1.275,0.548,2.228,1.491,1.058,0.345,2.153,1.388,165.0,507.0
2015-03-16,Lima,Peru,-77.0333,-12.0001,[-77.5333 -12.5001 -76.5333 -11.5001],1.178,0.462,1.931,1.388,1.026,0.352,2.086,1.361,153.0,488.0
2015-03-17,Lima,Peru,-77.0333,-12.0001,[-77.5333 -12.5001 -76.5333 -11.5001],1.164,0.413,1.924,1.341,1.033,0.287,2.09,1.333,154.0,497.0
2015-03-18,Lima,Peru,-77.0333,-12.0001,[-77.5333 -12.5001 -76.5333 -11.5001],1.084,0.229,1.902,1.223,1.019,0.301,2.12,1.329,159.0,507.0
2015-03-19,Lima,Peru,-77.0333,-12.0001,[-77.5333 -12.5001 -76.5333 -11.5001],1.149,0.34,1.917,1.363,1.054,0.343,2.168,1.411,170.0,485.0
2015-03-20,Lima,Peru,-77.0333,-12.0001,[-77.5333 -12.5001 -76.5333 -11.5001],1.149,0.172,1.879,1.296,1.139,0.35,2.135,1.405,155.0,505.0
2015-03-21,Lima,Peru,-77.0333,-12.0001,[-77.5333 -12.5001 -76.5333 -11.5001],1.143,0.143,1.81,1.259,1.142,0.325,2.092,1.374,163.0,484.0
2015-03-22,Lima,Peru,-77.0333,-12.0001,[-77.5333 -12.5001 -76.5333 -11.5001],1.084,0.05,1.81,1.234,1.111,0.316,2.121,1.381,159.0,517.0
2015-03-23,Lima,Peru,-77.0333,-12.0001,[-77.5333 -12.5001 -76.5333 -11.5001],0.96,0.229,1.803,1.267,1.14,0.387,2.185,1.431,145.0,493.0
2015-03-24,Lima,Peru,-77.0333,-12.0001,[-77.5333 -12.5001 -76.5333 -11.5001],1.091,0.346,1.81,1.411,1.23,0.467,2.263,1.502,166.0,505.0
2015-03-25,Lima,Peru,-77.0333,-12.0001,[-77.5333 -12.5001 -76.5333 -11.5001],0.96,0.172,1.81,1.335,1.249,0.446,2.289,1.502,157.0,504.0
2015-03-26,Lima,Peru,-77.0333,-12.0001,[-77.5333 -12.5001 -76.5333 -11.5001],1.149,0.426,1.939,1.45,1.233,0.481,2.275,1.497,158.0,494.0
2015-03-27,Lima,Peru,-77.0333,-12.0001,[-77.5333 -12.5001 -76.5333 -11.5001],1.118,0.413,2.108,1.466,1.211,0.469,2.353,1.533,169.0,513.0
2015-03-28,Lima,Peru,-77.0333,-12.0001,[-77.5333 -12.5001 -76.5333 -11.5001],1.164,0.387,1.752,1.376,1.221,0.464,2.24,1.484,179.0,483.0
2015-03-29,Lima,Peru,-77.0333,-12.0001,[-77.5333 -12.5001 -76.5333 -11.5001],1.164,0.387,1.752,1.376,1.222,0.446,2.247,1.505,179.0,538.0
2015-03-30,Lima,Peru,-77.0333,-12.0001,[-77.5333 -12.5001 -76.5333 -11.5001],1.084,0.343,1.752,1.312,1.218,0.445,2.24,1.494,165.0,524.0
2015-03-31,Lima,Peru,-77.0333,-12.0001,[-77.5333 -12.5001 -76.5333 -11.5001],1.105,0.343,1.939,1.424,1.272,0.44,2.294,1.56,189.0,553.0
2015-04-01,Lima,Peru,-77.0333,-12.0001,[-77.5333 -12.5001 -76.5333 -11.5001],1.208,0.387,1.963,1.525,1.271,0.471,2.283,1.596,181.0,535.0
2015-04-02,Lima,Peru,-77.0333,-12.0001,[-77.5333 -12.5001 -76.5333 -11.5001],1.251,0.522,2.238,1.605,1.282,0.48,2.354,1.614,185.0,538.0
2015-04-03,Lima,Peru,-77.0333,-12.0001,[-77.5333 -12.5001 -76.5333 -11.5001],1.15,0.495,2.148,1.535,1.242,0.44,2.376,1.617,183.0,545.0
2015-04-04,Lima,Peru,-77.0333,-12.0001,[-77.5333 -12.5001 -76.5333 -11.5001],1.15,0.495,2.201,1.532,1.188,0.42,2.379,1.621,187.0,522.0
2015-04-05,Lima,Peru,-77.0333,-12.0001,[-77.5333 -12.5001 -76.5333 -11.5001],1.221,0.548,2.238,1.572,1.23,0.449,2.417,1.684,179.0,536.0
2015-04-06,Lima,Peru,-77.0333,-12.0001,[-77.5333 -12.5001 -76.5333 -11.5001],1.251,0.539,2.317,1.554,1.247,0.464,2.525,1.736,195.0,512.0
2015-04-07,Lima,Peru,-77.0333,-12.0001,[-77.5333 -12.5001 -76.5333 -11.5001],1.267,0.387,2.324,1.585,1.282,0.425,2.595,1.78,185.0,544.0
2015-04-08,Lima,Peru,-77.0333,-12.0001,[-77.5333 -12.5001 -76.5333 -11.5001],1.315,0.371,2.29,1.491,1.226,0.322,2.628,1.737,159.0,523.0
2015-04-09,Lima,Peru,-77.0333,-12.0001,[-77.5333 -12.5001 -76.5333 -11.5001],1.351,0.522,2.428,1.66,1.304,0.38,2.647,1.79,178.0,537.0
2015-04-10,Lima,Peru,-77.0333,-12.0001,[-77.5333 -12.5001 -76.5333 -11.5001],1.351,0.343,2.317,1.597,1.331,0.392,2.76,1.813,172.0,537.0
2015-04-11,Lima,Peru,-77.0333,-12.0001,[-77.5333 -12.5001 -76.5333 -11.5001],1.298,0.343,2.238,1.585,1.395,0.422,2.712,1.842,154.0,527.0
2015-04-12,Lima,Peru,-77.0333,-12.0001,[-77.5333 -12.5001 -76.5333 -11.5001],1.42,0.384,2.445,1.732,1.421,0.444,2.842,1.888,151.0,544.0
2015-04-13,Lima,Peru,-77.0333,-12.0001,[-77.5333 -12.5001 -76.5333 -11.5001],1.42,0.518,2.381,1.718,1.426,0.48,2.828,1.907,156.0,511.0
2015-04-14,Lima,Peru,-77.0333,-12.0001,[-77.5333 -12.5001 -76.5333 -11.5001],1.431,0.604,2.51,1.841,1.545,0.536,2.948,2.011,147.0,530.0
2015-04-15,Lima,Peru,-77.0333,-12.0001,[-77.5333 -12.5001 -76.5333 -11.5001],1.455,0.678,2.51,1.825,1.54,0.541,2.921,2.001,113.0,480.0
2015-04-16,Lima,Peru,-77.0333,-12.0001,[-77.5333 -12.5001 -76.5333 -11.5001],1.507,0.548,2.787,1.962,1.536,0.547,3.038,2.051,136.0,510.0
2015-04-17,Lima,Peru,-77.0333,-12.0001,[-77.5333 -12.5001 -76.5333 -11.5001],1.507,0.672,2.854,1.969,1.567,0.562,3.048,2.083,115.0,495.0
2015-04-18,Lima,Peru,-77.0333,-12.0001,[-77.5333 -12.5001 -76.5333 -11.5001],1.79,0.689,2.89,2.352,1.547,0.635,2.983,2.073,129.0,503.0
2015-04-19,Lima,Peru,-77.0333,-12.0001,[-77.5333 -12.5001 -76.5333 -11.5001],1.79,0.764,2.854,2.241,1.578,0.663,3.077,2.109,152.0,510.0
2015-04-20,Lima,Peru,-77.0333,-12.0001,[-77.5333 -12.5001 -76.5333 -11.5001],1.79,0.946,2.854,2.305,1.602,0.709,3.158,2.161,166.0,485.0
2015-04-21,Lima,Peru,-77.0333,-12.0001,[-77.5333 -12.5001 -76.5333 -11.5001],1.79,0.982,2.968,2.502,1.574,0.737,3.072,2.2,150.0,503.0
2015-04-22,Lima,Peru,-77.0333,-12.0001,[-77.5333 -12.5001 -76.5333 -11.5001],1.827,1.139,3.51,2.576,1.599,0.762,3.184,2.243,164.0,473.0
2015-04-23,Lima,Peru,-77.0333,-12.0001,[-77.5333 -12.5001 -76.5333 -11.5001],1.827,1.139,3.539,2.585,1.618,0.802,3.263,2.311,163.0,504.0
2015-04-24,Lima,Peru,-77.0333,-12.0001,[-77.5333 -12.5001 -76.5333 -11.5001],1.719,0.75,3.399,2.305,1.604,0.742,3.201,2.265,145.0,482.0
2015-04-25,Lima,Peru,-77.0333,-12.0001,[-77.5333 -12.5001 -76.5333 -11.5001],1.73,0.994,3.476,2.437,1.642,0.771,3.217,2.25,163.0,495.0
2015-04-26,Lima,Peru,-77.0333,-12.0001,[-77.5333 -12.5001 -76.5333 -11.5001],1.736,0.994,3.399,2.414,1.662,0.752,3.178,2.274,172.0,492.0
2015-04-27,Lima,Peru,-77.0333,-12.0001,[-77.5333 -12.5001 -76.5333 -11.5001],1.738,0.994,3.476,2.46,1.703,0.772,3.219,2.297,192.0,483.0
2015-04-28,Lima,Peru,-77.0333,-12.0001,[-77.5333 -12.5001 -76.5333 -11.5001],1.827,0.953,3.547,2.53,1.728,0.818,3.253,2.328,205.0,500.0
2015-04-29,Lima,Peru,-77.0333,-12.0001,[-77.5333 -12.5001 -76.5333 -11.5001],1.719,0.845,3.399,2.395,1.669,0.753,3.286,2.281,219.0,468.0
2015-04-30,Lima,Peru,-77.0333,-12.0001,[-77.5333 -12.5001 -76.5333 -11.5001],1.719,0.845,3.399,2.395,1.682,0.723,3.274,2.283,219.0,520.0
2015-05-01,Lima,Peru,-77.0333,-12.0001,[-77.5333 -12.5001 -76.5333 -11.5001],1.719,0.879,2.856,2.166,1.68,0.732,3.146,2.247,207.0,502.0
2015-05-02,Lima,Peru,-77.0333,-12.0001,[-77.5333 -12.5001 -76.5333 -11.5001],1.719,0.882,2.866,2.214,1.637,0.741,3.119,2.219,244.0,531.0
2015-05-03,Lima,Peru,-77.0333,-12.0001,[-77.5333 -12.5001 -76.5333 -11.5001],1.639,0.845,2.703,2.002,1.657,0.73,3.199,2.231,240.0,513.0
2015-05-04,Lima,Peru,-77.0333,-12.0001,[-77.5333 -12.5001 -76.5333 -11.5001],1.555,0.809,2.805,2.024,1.638,0.731,3.074,2.198,243.0,518.0
2015-05-05,Lima,Peru,-77.0333,-12.0001,[-77.5333 -12.5001 -76.5333 -11.5001],1.514,0.759,2.843,2.011,1.638,0.718,3.097,2.215,255.0,531.0
2015-05-06,Lima,Peru,-77.0333,-12.0001,[-77.5333 -12.5001 -76.5333 -11.5001],1.556,0.759,2.875,2.079,1.639,0.712,3.104,2.201,263.0,504.0
2015-05-07,Lima,Peru,-77.0333,-12.0001,[-77.5333 -12.5001 -76.5333 -11.5001],1.422,0.601,2.693,1.985,1.62,0.668,3.042,2.184,249.0,528.0
2015-05-08,Lima,Peru,-77.0333,-12.0001,[-77.5333 -12.5001 -76.5333 -11.5001],1.422,0.601,2.693,1.985,1.638,0.674,2.994,2.178,249.0,496.0
2015-05-09,Lima,Peru,-77.0333,-12.0001,[-77.5333 -12.5001 -76.5333 -11.5001],1.67,0.759,2.843,2.08,1.736,0.727,3.166,2.268,240.0,527.0
2015-05-10,Lima,Peru,-77.0333,-12.0001,[-77.5333 -12.5001 -76.5333 -11.5001],1.422,0.737,2.609,1.963,1.715,0.783,3.227,2.355,216.0,506.0
2015-05-11,Lima,Peru,-77.0333,-12.0001,[-77.5333 -12.5001 -76.5333 -11.5001],1.486,0.737,2.693,2.078,1.763,0.834,3.274,2.394,230.0,522.0
2015-05-12,Lima,Peru,-77.0333,-12.0001,[-77.5333 -12.5001 -76.5333 -11.5001],1.387,0.601,2.522,2.01,1.723,0.822,3.171,2.37,208.0,518.0
2015-05-13,Lima,Peru,-77.0333,-12.0001,[-77.5333 -12.5001 -76.5333 -11.5001],1.387,0.599,2.522,1.957,1.723,0.824,3.182,2.379,201.0,508.0
2015-05-14,Lima,Peru,-77.0333,-12.0001,[-77.5333 -12.5001 -76.5333 -11.5001],1.514,0.601,2.609,2.032,1.792,0.839,3.309,2.427,209.0,527.0
2015-05-15,Lima,Peru,-77.0333,-12.0001,[-77.5333 -12.5001 -76.5333 -11.5001],1.729,0.759,2.783,2.127,1.83,0.917,3.427,2.474,220.0,496.0
2015-05-16,Lima,Peru,-77.0333,-12.0001,[-77.5333 -12.5001 -76.5333 -11.5001],1.729,0.553,3.333,2.344,1.873,0.907,3.407,2.557,200.0,516.0
2015-05-17,Lima,Peru,-77.0333,-12.0001,[-77.5333 -12.5001 -76.5333 -11.5001],1.729,0.462,3.333,2.279,1.952,0.918,3.629,2.614,162.0,467.0
2015-05-18,Lima,Peru,-77.0333,-12.0001,[-77.5333 -12.5001 -76.5333 -11.5001],1.906,0.341,4.163,2.459,1.971,0.925,3.608,2.613,164.0,492.0
2015-05-19,Lima,Peru,-77.0333,-12.0001,[-77.5333 -12.5001 -76.5333 -11.5001],2.097,0.682,4.499,2.636,2.048,0.974,3.675,2.661,140.0,476.0
2015-05-20,Lima,Peru,-77.0333,-12.0001,[-77.5333 -12.5001 -76.5333 -11.5001],1.979,0.68,4.499,2.678,2.008,0.984,3.635,2.598,130.0,481.0
2015-05-21,Lima,Peru,-77.0333,-12.0001,[-77.5333 -12.5001 -76.5333 -11.5001],1.979,0.778,4.22,2.559,2.037,1.04,3.659,2.669,126.0,491.0
2015-05-22,Lima,Peru,-77.0333,-12.0001,[-77.5333 -12.5001 -76.5333 -11.5001],1.998,0.868,4.304,2.602,2.066,1.062,3.694,2.706,128.0,464.0
2015-05-23,Lima,Peru,-77.0333,-12.0001,[-77.5333 -12.5001 -76.5333 -11.5001],1.998,0.868,4.304,2.602,2.115,1.067,3.955,2.737,128.0,492.0
2015-05-24,Lima,Peru,-77.0333,-12.0001,[-77.5333 -12.5001 -76.5333 -11.5001],2.073,0.868,3.932,2.513,2.094,1.049,3.885,2.684,139.0,462.0
2015-05-25,Lima,Peru,-77.0333,-12.0001,[-77.5333 -12.5001 -76.5333 -11.5001],2.31,0.943,3.932,2.639,2.055,1.029,3.623,2.605,135.0,493.0
2015-05-26,Lima,Peru,-77.0333,-12.0001,[-77.5333 -12.5001 -76.5333 -11.5001],2.163,0.943,3.932,2.517,2.012,0.971,3.557,2.582,110.0,471.0
2015-05-27,Lima,Peru,-77.0333,-12.0001,[-77.5333 -12.5001 -76.5333 -11.5001],2.364,0.943,3.932,2.584,2.21,1.022,3.794,2.693,114.0,488.0
2015-05-28,Lima,Peru,-77.0333,-12.0001,[-77.5333 -12.5001 -76.5333 -11.5001],2.37,0.964,3.932,2.63,2.237,1.088,3.779,2.713,105.0,486.0
2015-05-29,Lima,Peru,-77.0333,-12.0001,[-77.5333 -12.5001 -76.5333 -11.5001],2.712,1.629,3.932,2.744,2.242,1.155,3.765,2.703,92.0,477.0
2015-05-30,Lima,Peru,-77.0333,-12.0001,[-77.5333 -12.5001 -76.5333 -11.5001],2.712,1.495,3.932,2.792,2.229,1.157,3.724,2.707,89.0,496.0
2015-05-31,Lima,Peru,-77.0333,-12.0001,[-77.5333 -12.5001 -76.5333 -11.5001],2.37,1.171,3.62,2.576,2.015,1.045,3.5,2.575,102.0,466.0
2015-06-01,Lima,Peru,-77.0333,-12.0001,[-77.5333 -12.5001 -76.5333 -11.5001],2.37,1.171,3.62,2.576,2.246,1.084,3.47,2.591,102.0,518.0
2015-06-02,Lima,Peru,-77.0333,-12.0001,[-77.5333 -12.5001 -76.5333 -11.5001],2.501,1.82,3.832,2.714,2.312,1.327,3.615,2.686,109.0,505.0
2015-06-03,Lima,Peru,-77.0333,-12.0001,[-77.5333 -12.5001 -76.5333 -11.5001],2.501,1.782,3.832,2.771,2.271,1.298,3.558,2.643,141.0,533.0
2015-06-04,Lima,Peru,-77.0333,-12.0001,[-77.5333 -12.5001 -76.5333 -11.5001],2.482,1.54,3.832,2.703,2.258,1.206,3.7,2.683,140.0,515.0
2015-06-05,Lima,Peru,-77.0333,-12.0001,[-77.5333 -12.5001 -76.5333 -11.5001],2.482,1.54,3.832,2.691,2.21,1.203,3.58,2.597,139.0,522.0
2015-06-06,Lima,Peru,-77.0333,-12.0001,[-77.5333 -12.5001 -76.5333 -11.5001],2.501,1.54,3.832,2.701,2.187,1.177,3.484,2.536,142.0,533.0
2015-06-07,Lima,Peru,-77.0333,-12.0001,[-77.5333 -12.5001 -76.5333 -11.5001],2.482,1.54,3.812,2.671,2.189,1.188,3.346,2.433,148.0,506.0
2015-06-08,Lima,Peru,-77.0333,-12.0001,[-77.5333 -12.5001 -76.5333 -11.5001],2.501,1.545,3.812,2.758,2.311,1.201,3.495,2.579,137.0,530.0
2015-06-09,Lima,Peru,-77.0333,-12.0001,[-77.5333 -12.5001 -76.5333 -11.5001],2.501,1.545,3.812,2.758,2.37,1.225,3.637,2.67,137.0,503.0
2015-06-10,Lima,Peru,-77.0333,-12.0001,[-77.5333 -12.5001 -76.5333 -11.5001],2.501,1.545,3.812,2.762,2.299,1.19,3.686,2.65,136.0,535.0
2015-06-11,Lima,Peru,-77.0333,-12.0001,[-77.5333 -12.5001 -76.5333 -11.5001],2.501,1.608,3.812,2.734,2.233,1.199,3.654,2.608,135.0,512.0
2015-06-12,Lima,Peru,-77.0333,-12.0001,[-77.5333 -12.5001 -76.5333 -11.5001],2.501,1.608,3.832,2.896,2.359,1.264,3.794,2.706,161.0,529.0
2015-06-13,Lima,Peru,-77.0333,-12.0001,[-77.5333 -12.5001 -76.5333 -11.5001],2.501,1.608,3.832,2.922,2.424,1.315,3.791,2.727,161.0,526.0
2015-06-14,Lima,Peru,-77.0333,-12.0001,[-77.5333 -12.5001 -76.5333 -11.5001],2.501,1.545,3.812,2.819,2.398,1.268,3.832,2.7,166.0,516.0
2015-06-15,Lima,Peru,-77.0333,-12.0001,[-77.5333 -12.5001 -76.5333 -11.5001],2.708,1.608,3.832,2.921,2.499,1.332,4.004,2.808,171.0,534.0
2015-06-16,Lima,Peru,-77.0333,-12.0001,[-77.5333 -12.5001 -76.5333 -11.5001],2.708,1.652,3.832,2.913,2.499,1.346,3.986,2.802,187.0,503.0
2015-06-17,Lima,Peru,-77.0333,-12.0001,[-77.5333 -12.5001 -76.5333 -11.5001],2.663,1.54,3.712,2.979,2.451,1.258,3.971,2.836,159.0,521.0
2015-06-18,Lima,Peru,-77.0333,-12.0001,[-77.5333 -12.5001 -76.5333 -11.5001],2.808,1.54,3.613,2.884,2.525,1.282,3.89,2.815,121.0,472.0
2015-06-19,Lima,Peru,-77.0333,-12.0001,[-77.5333 -12.5001 -76.5333 -11.5001],2.879,1.563,3.712,3.0,2.514,1.281,3.87,2.806,141.0,501.0
2015-06-20,Lima,Peru,-77.0333,-12.0001,[-77.5333 -12.5001 -76.5333 -11.5001],2.848,1.573,3.801,3.025,2.554,1.316,3.917,2.863,145.0,483.0
2015-06-21,Lima,Peru,-77.0333,-12.0001,[-77.5333 -12.5001 -76.5333 -11.5001],2.539,1.545,3.801,3.039,2.497,1.337,3.966,2.88,152.0,490.0
2015-06-22,Lima,Peru,-77.0333,-12.0001,[-77.5333 -12.5001 -76.5333 -11.5001],2.539,1.536,3.83,3.021,2.532,1.344,4.221,2.975,159.0,500.0